Wind_Speed
23 22 22 21 22 22 22 22 22 21 22 22 22 21 22 22 21 22 23 24 24 25 26 26 26 26 27 28 28 28 29 32 33 34 35 35 35 37 38 38 37 38 40 40
24 23 22 22 22 22 22 22 22 22 22 22 22 21 21 22 21 21 22 22 23 24 25 25 25 26 25 25 26 26 27 29 31 33 34 34 35 35 36 37 37 37 38 39
24 23 22 22 22 22 22 22 22 22 22 23 23 22 21 21 21 20 21 21 22 23 24 24 24 24 24 24 24 25 27 28 30 31 33 33 34 35 35 37 37 38 37 38
25 24 23 22 22 22 23 23 23 23 23 23 23 23 21 21 21 21 20 21 21 22 23 24 24 23 22 22 23 23 26 27 28 30 33 34 34 34 35 37 38 38 38 38
26 25 24 23 22 22 22 22 23 23 23 24 24 24 23 22 21 21 21 21 21 21 22 23 24 23 22 23 23 24 26 27 29 30 33 33 33 34 35 37 38 38 37 37
28 27 26 25 24 23 23 23 24 23 24 24 23 24 23 23 22 22 22 21 21 22 23 24 24 23 23 23 24 24 25 27 28 29 31 32 33 34 34 35 37 37 36 38
29 28 28 27 26 25 24 24 25 25 24 24 23 24 23 23 22 22 22 22 23 23 23 23 24 23 23 23 23 24 25 26 28 29 30 32 33 34 35 36 36 36 36 36
30 29 28 27 27 26 25 25 25 26 26 25 24 24 24 24 24 23 23 23 24 23 23 24 23 23 22 22 23 24 25 26 28 29 31 32 33 34 35 36 37 37 37 37
31 30 29 28 28 27 27 26 26 27 27 26 25 25 25 24 24 24 24 24 24 24 24 24 24 23 23 23 24 25 25 25 28 30 31 32 33 35 35 36 37 38 38 39
31 31 30 30 29 29 28 27 27 27 28 28 27 26 25 24 24 25 25 25 25 25 24 24 24 24 24 24 25 25 25 26 28 30 31 32 33 34 36 37 38 38 38 38
32 32 31 31 30 30 29 29 28 28 29 28 28 26 24 24 25 25 26 25 25 25 24 24 24 24 25 25 24 25 26 27 29 30 31 32 33 34 35 37 38 39 40 41
32 32 32 32 31 31 30 30 29 30 30 30 30 28 25 25 25 26 26 25 25 26 25 25 26 25 25 25 25 26 27 28 29 30 31 32 33 34 35 37 38 39 41 41
32 33 33 33 32 32 32 31 31 31 32 31 31 30 28 27 28 28 28 26 26 27 26 26 26 26 27 27 27 27 28 28 29 29 30 32 33 34 35 37 38 39 40 41
33 34 34 34 34 33 33 32 32 32 33 33 31 31 30 29 29 29 28 27 27 27 27 27 27 28 28 28 28 28 29 30 30 31 31 32 33 34 35 37 38 39 40 41
35 36 35 36 36 35 34 34 33 33 33 34 33 32 31 30 30 29 28 28 28 28 27 27 28 29 29 29 29 30 30 31 31 32 32 33 34 35 35 37 38 39 40 41
37 37 37 37 37 37 37 35 35 35 34 34 34 33 32 32 31 30 30 30 29 29 29 30 30 30 31 31 31 32 32 32 32 33 34 35 35 36 37 38 38 39 40 41
39 38 37 37 37 39 39 36 36 36 36 36 35 34 34 33 32 31 30 31 31 31 31 31 31 32 33 33 33 33 33 34 34 35 35 35 36 37 38 38 39 40 41 41
38 39 39 39 38 40 38 37 37 36 36 36 35 34 34 34 33 32 32 31 31 32 32 32 32 33 33 34 34 35 35 35 35 36 37 37 37 38 38 38 39 40 40 41
36 37 38 39 40 40 38 37 36 36 35 35 35 34 34 34 33 33 33 33 32 32 32 32 32 33 33 34 34 35 35 36 36 37 38 38 38 38 39 39 39 40 40 41
33 34 35 37 38 38 37 35 36 37 36 35 35 35 35 35 34 33 34 34 34 34 33 33 33 33 33 33 34 35 36 36 37 37 38 38 39 39 40 40 40 41 42 43
32 33 34 34 35 36 35 33 34 35 35 34 34 34 34 35 35 34 34 34 34 34 34 34 34 34 34 34 35 35 36 36 37 37 38 39 39 40 41 41 42 43 43 43
32 32 33 33 34 33 33 33 33 33 34 34 34 34 34 35 35 35 35 35 35 35 35 35 35 35 36 36 36 36 37 37 37 38 38 39 40 41 42 42 42 42 43 43
32 32 33 33 34 34 33 33 33 33 33 32 33 34 35 35 35 35 35 35 35 35 35 35 36 36 36 36 36 37 37 37 38 38 39 40 40 40 41 41 42 42 42 43
30 31 33 34 33 33 33 34 34 33 34 34 34 34 34 34 34 35 35 35 35 35 35 35 36 36 36 36 36 37 37 37 38 38 38 39 39 39 40 40 41 42 42 41
31 32 32 33 33 33 32 33 34 34 34 34 34 34 35 35 35 35 35 35 35 35 36 36 37 37 37 37 37 37 37 38 38 38 38 38 39 40 40 40 41 41 41 40
30 31 31 31 31 32 33 34 34 34 34 34 34 34 34 34 34 34 35 35 35 35 36 36 37 37 37 38 38 38 38 38 38 38 38 39 39 39 40 40 39 39 39 38
Wind_Direction
265 265 267 268 269 271 271 273 276 276 277 276 278 277 275 273 271 268 265 264 263 265 266 266 265 263 262 260 258 255 251 247 244 241 239 239 239 238 237 236 236 239 239 242
261 263 266 266 268 269 270 272 274 276 278 277 277 276 275 275 272 269 268 268 264 264 266 268 266 265 263 260 259 255 252 248 244 240 238 238 238 239 239 238 239 241 242 243
262 264 264 265 266 268 268 270 271 274 276 277 278 276 276 275 273 271 269 269 268 267 267 269 271 270 264 261 262 256 252 248 241 237 238 238 240 241 240 240 241 243 244 244
259 260 261 261 263 266 267 268 270 271 274 277 278 277 275 274 273 272 272 270 269 269 267 268 271 269 263 260 260 256 251 247 244 243 240 239 242 242 242 242 243 245 247 247
257 257 257 258 261 263 266 268 270 270 272 275 277 277 275 272 272 272 273 273 272 270 270 271 272 269 265 261 259 254 252 249 248 247 243 241 244 244 243 244 245 246 249 250
256 256 257 258 260 262 265 267 270 271 273 273 275 277 275 272 273 273 274 275 274 274 275 274 272 270 267 262 258 256 254 250 248 246 245 243 244 245 245 245 246 248 251 252
255 255 256 258 260 261 263 266 269 270 271 273 275 275 275 274 274 275 275 275 276 277 277 277 274 270 268 264 262 259 257 253 247 247 247 245 245 246 247 248 250 251 253 255
256 255 256 258 259 261 263 265 267 270 271 273 273 273 274 274 276 276 274 274 275 276 278 278 276 273 268 266 265 263 259 255 248 246 248 248 247 248 248 249 251 253 255 258
256 256 256 256 258 259 262 263 266 269 270 271 271 272 272 275 277 276 274 275 276 276 277 277 275 272 269 268 267 264 260 257 251 248 250 250 250 250 249 251 253 255 257 259
256 257 255 256 256 257 260 263 265 266 268 270 271 271 273 276 277 276 275 275 275 276 277 276 275 273 270 268 266 264 262 259 256 253 253 252 251 251 251 252 255 258 259 260
256 257 257 256 257 258 259 261 264 265 266 268 269 271 273 275 276 277 277 276 276 277 277 276 274 272 269 269 268 265 263 261 258 256 255 255 253 251 252 254 256 259 261 262
254 256 258 257 257 257 258 260 262 263 265 266 268 268 271 275 277 278 277 277 276 276 275 274 272 270 269 269 269 268 264 262 261 258 258 258 257 257 257 258 259 260 263 264
253 254 257 258 257 258 258 259 260 261 263 266 268 269 271 273 276 277 276 277 277 277 275 274 273 271 270 270 269 269 268 266 264 261 260 259 261 261 261 261 262 263 264 266
252 253 254 256 258 259 259 258 259 260 262 265 267 270 271 272 274 276 276 276 276 276 276 275 274 273 272 271 271 271 270 268 267 266 264 263 263 262 262 264 264 266 266 268
253 253 254 254 256 257 258 259 259 260 262 265 267 268 269 270 272 273 274 274 274 275 275 275 276 275 274 273 272 272 272 270 269 269 269 267 267 265 265 267 267 268 269 269
254 255 254 254 255 257 258 259 260 261 262 264 265 266 267 268 270 271 270 270 272 273 273 275 275 274 273 273 272 271 270 270 270 270 270 270 270 269 269 269 270 271 271 271
255 255 256 255 255 258 258 259 260 262 263 263 264 264 265 267 268 269 269 270 271 272 272 273 274 274 272 272 272 271 271 271 271 271 272 271 272 272 273 272 271 272 272 272
256 256 257 257 257 257 260 260 261 261 261 262 262 263 263 264 266 267 267 268 270 272 273 274 274 274 273 272 273 272 272 272 272 272 273 273 273 274 274 273 273 274 274 274
255 256 257 258 259 260 260 261 261 262 262 262 262 263 263 264 265 266 266 268 269 271 272 273 274 274 273 272 272 273 273 274 274 275 274 274 274 276 275 275 275 275 276 276
253 255 257 259 261 263 263 262 262 263 263 263 263 263 263 264 265 265 265 267 268 270 271 272 273 274 273 272 272 272 273 275 276 276 276 275 275 276 277 276 276 277 277 278
254 255 257 259 261 262 264 264 264 264 264 263 263 264 265 265 265 265 265 266 268 269 270 271 273 274 274 273 272 273 274 275 276 276 276 276 276 277 278 278 278 278 279 280
255 257 258 259 259 261 263 264 263 264 263 263 264 264 265 265 265 265 265 266 268 269 270 271 273 274 274 274 274 274 274 275 275 276 276 276 277 277 279 280 280 281 281 281
256 257 257 257 259 260 261 262 262 263 263 262 263 264 265 265 266 265 264 266 268 269 271 272 273 274 274 275 275 275 275 275 276 276 277 277 278 278 279 280 281 281 282 282
256 257 258 257 258 260 261 261 261 261 262 262 264 265 266 267 267 267 266 267 269 271 272 273 273 274 274 275 275 275 275 276 277 278 278 278 279 279 280 280 281 282 282 282
255 257 258 258 258 258 259 260 259 260 261 263 264 265 267 267 267 268 268 270 271 272 273 274 274 274 275 276 276 276 276 277 277 278 279 280 281 281 281 281 282 282 281 280
253 255 256 257 255 256 259 260 260 261 262 263 265 266 267 268 268 268 269 270 271 273 274 275 275 275 276 276 277 277 277 278 278 279 279 280 281 281 281 282 282 281 281 279
Height
5732 5732 5732 5732 5732 5731 5731 5730 5729 5729 5727 5726 5725 5724 5722 5721 5720 5719 5719 5718 5718 5718 5718 5718 5717 5717 5717 5717 5716 5715 5716 5717 5719 5722 5724 5727 5730 5734 5737 5740 5743 5746 5749 5753
5726 5726 5727 5726 5726 5725 5725 5725 5724 5723 5721 5720 5719 5718 5717 5715 5714 5713 5713 5712 5712 5712 5711 5711 5711 5710 5710 5710 5709 5708 5709 5710 5712 5715 5717 5720 5723 5726 5729 5732 5735 5738 5741 5744
5719 5721 5721 5720 5720 5720 5719 5719 5719 5718 5716 5714 5713 5713 5712 5710 5709 5708 5707 5706 5705 5705 5705 5705 5704 5703 5702 5702 5702 5702 5703 5704 5706 5708 5711 5713 5716 5719 5722 5724 5727 5730 5732 5735
5711 5713 5714 5714 5714 5714 5714 5714 5713 5711 5710 5709 5708 5706 5707 5705 5703 5702 5701 5700 5700 5699 5699 5698 5698 5697 5696 5696 5696 5696 5697 5698 5699 5701 5703 5706 5708 5711 5714 5716 5719 5722 5725 5727
5705 5706 5706 5707 5708 5707 5707 5707 5706 5705 5703 5703 5701 5700 5701 5699 5698 5697 5696 5695 5694 5694 5693 5692 5691 5690 5690 5689 5689 5690 5690 5691 5693 5694 5696 5699 5701 5704 5706 5708 5711 5714 5717 5718
5697 5698 5699 5700 5701 5701 5700 5700 5699 5698 5697 5696 5696 5694 5694 5693 5692 5691 5690 5689 5688 5688 5687 5686 5685 5684 5683 5683 5683 5683 5684 5684 5686 5687 5689 5692 5694 5696 5698 5700 5703 5706 5708 5710
5689 5690 5691 5692 5693 5693 5693 5694 5692 5691 5690 5690 5689 5687 5688 5687 5686 5685 5684 5683 5682 5681 5680 5680 5679 5678 5677 5677 5677 5677 5677 5678 5679 5681 5683 5684 5686 5689 5691 5692 5695 5697 5699 5701
5680 5682 5683 5684 5685 5686 5686 5686 5686 5685 5684 5683 5682 5681 5682 5681 5680 5679 5678 5677 5676 5675 5674 5673 5672 5671 5670 5670 5670 5671 5671 5671 5672 5674 5675 5677 5679 5681 5683 5685 5687 5689 5690 5692
5671 5673 5675 5676 5677 5678 5678 5678 5679 5678 5676 5676 5675 5675 5675 5674 5673 5672 5671 5670 5669 5668 5667 5666 5665 5664 5664 5664 5664 5664 5664 5664 5665 5666 5667 5669 5671 5673 5674 5676 5678 5680 5681 5683
5662 5664 5666 5667 5668 5669 5670 5670 5670 5669 5668 5667 5668 5668 5669 5668 5667 5666 5665 5663 5662 5661 5660 5659 5658 5657 5657 5657 5656 5656 5656 5657 5658 5658 5660 5661 5662 5664 5666 5668 5669 5671 5672 5673
5654 5655 5657 5658 5659 5661 5662 5662 5662 5661 5661 5661 5660 5664 5662 5661 5659 5658 5657 5656 5655 5654 5653 5652 5651 5650 5650 5649 5649 5649 5649 5649 5650 5651 5652 5653 5654 5655 5657 5658 5660 5661 5662 5663
5645 5646 5647 5649 5651 5651 5652 5653 5653 5654 5653 5652 5652 5657 5654 5653 5651 5650 5649 5648 5647 5647 5646 5645 5644 5643 5643 5642 5642 5642 5642 5642 5642 5642 5643 5644 5645 5646 5647 5649 5650 5650 5651 5652
5635 5636 5638 5639 5643 5642 5643 5644 5644 5644 5644 5643 5644 5648 5646 5645 5643 5642 5642 5641 5640 5639 5638 5638 5637 5636 5636 5635 5635 5634 5634 5634 5634 5634 5634 5635 5636 5637 5638 5639 5639 5640 5641 5641
5624 5626 5629 5631 5631 5632 5633 5635 5635 5635 5635 5635 5636 5637 5638 5636 5635 5635 5634 5633 5632 5631 5631 5630 5629 5628 5628 5628 5627 5626 5626 5626 5626 5625 5626 5626 5627 5627 5628 5629 5629 5629 5629 5629
5613 5615 5617 5619 5620 5621 5623 5625 5625 5625 5626 5626 5628 5628 5628 5627 5627 5626 5626 5625 5624 5624 5623 5622 5621 5620 5620 5619 5619 5618 5617 5617 5617 5617 5617 5617 5617 5618 5618 5619 5619 5618 5618 5618
5602 5604 5607 5609 5610 5610 5612 5614 5615 5615 5616 5616 5617 5618 5619 5618 5617 5617 5616 5616 5616 5616 5614 5614 5613 5612 5611 5611 5610 5609 5609 5608 5608 5608 5608 5608 5608 5608 5608 5608 5608 5607 5607 5606
5591 5593 5595 5597 5599 5599 5601 5605 5605 5606 5607 5607 5607 5609 5608 5608 5608 5608 5607 5607 5607 5607 5606 5605 5604 5603 5602 5601 5600 5600 5599 5599 5599 5599 5598 5598 5598 5597 5597 5596 5596 5596 5595 5594
5581 5582 5583 5585 5587 5588 5593 5593 5594 5595 5596 5596 5597 5598 5599 5599 5599 5598 5598 5598 5598 5597 5597 5596 5595 5594 5593 5592 5591 5590 5590 5590 5590 5589 5589 5588 5587 5586 5586 5585 5584 5583 5582 5582
5570 5571 5572 5574 5575 5576 5581 5582 5583 5583 5585 5586 5587 5588 5588 5588 5589 5589 5589 5589 5589 5588 5587 5586 5585 5584 5583 5582 5582 5581 5580 5580 5579 5579 5578 5577 5576 5575 5574 5573 5572 5571 5570 5569
5560 5561 5563 5563 5564 5566 5571 5571 5571 5573 5574 5576 5576 5577 5577 5578 5579 5581 5580 5579 5579 5579 5578 5577 5576 5575 5574 5573 5572 5571 5571 5570 5569 5567 5567 5565 5564 5563 5562 5561 5560 5559 5557 5556
5550 5551 5552 5553 5554 5555 5559 5560 5560 5563 5565 5565 5565 5566 5567 5568 5569 5569 5569 5569 5569 5568 5568 5567 5566 5565 5564 5563 5562 5561 5560 5559 5558 5556 5555 5554 5553 5552 5550 5549 5548 5546 5545 5543
5539 5541 5543 5543 5544 5548 5548 5549 5551 5551 5552 5553 5554 5555 5556 5557 5557 5557 5558 5558 5558 5558 5557 5557 5556 5555 5554 5553 5552 5551 5549 5548 5547 5546 5544 5543 5541 5540 5538 5537 5535 5533 5532 5530
5529 5532 5532 5534 5537 5537 5537 5538 5539 5540 5541 5542 5543 5544 5545 5546 5546 5547 5547 5547 5547 5547 5547 5546 5545 5544 5543 5542 5540 5540 5538 5537 5536 5535 5533 5531 5530 5528 5527 5525 5523 5521 5519 5517
5520 5521 5522 5524 5526 5527 5527 5528 5528 5529 5530 5531 5533 5534 5534 5535 5535 5536 5536 5536 5536 5536 5536 5535 5534 5533 5532 5531 5529 5528 5527 5526 5525 5523 5522 5520 5518 5517 5515 5513 5511 5508 5506 5504
5510 5511 5511 5513 5515 5516 5517 5517 5518 5519 5520 5521 5522 5523 5523 5524 5525 5525 5525 5525 5525 5525 5524 5523 5522 5522 5521 5519 5518 5517 5515 5514 5513 5512 5510 5508 5507 5505 5503 5501 5499 5496 5494 5492
5501 5502 5502 5503 5505 5505 5507 5507 5508 5509 5510 5511 5512 5512 5512 5513 5513 5514 5514 5514 5514 5513 5513 5512 5511 5510 5509 5508 5506 5505 5504 5503 5501 5500 5499 5497 5495 5493 5491 5489 5487 5485 5483 5481